Location: Pian di Sc�
(43.6333°N, 11.5500°E)
Time: 12:32:19
(UTC+00:00)

Cosmos 1777 Rocket - Pass Details

Date: 07 August 2020
Orbit: 758 x 776 km, 74.0° (Epoch: 24 September)

Event Time Altitude Azimuth Distance (km) Brightness Sun altitude
Exits shadow 00:48:45 84° 293° (WNW) 782 3.9 -26.7°
Drops below altitude 10° 00:54:03 10° 19° (NNE) 2,331 7.5 -26.3°
Sets 00:56:27 0° 21° (NNE) 3,263 8.6 -26.1°
